Location: Newark
(15.4608°S, 41.1635°W)
Time: 23:52:54
(UTC+00:00)

Transit 4A - Pass Details

Date: 07 March 2021
Orbit: 869 x 975 km, 66.8° (Epoch: 16 April)

Event Time Altitude Azimuth Distance (km) Brightness Sun altitude
Rises 00:22:27 0° 303° (WNW) 3,444 11.2 -46.8°
Enters shadow 00:22:41 - 302° (WNW) 3,370 11.1 -46.8°
Reaches altitude 10° 00:25:47 10° 284° (WNW) 2,511 - -47.5°
Maximum altitude 00:29:30 17° 243° (WSW) 2,044 - -48.3°
Drops below altitude 10° 00:33:15 10° 203° (SSW) 2,535 - -49.1°
Sets 00:36:40 0° 183° (S) 3,492 - -49.8°
